[[{"header":{"parameterUnit":"m.s-1","parameterCategory":1,"la1":30.2991,"la2":30.254,"lo1":-89.0895,"lo2":-89.0444,"dx":0.0017,"dy":0.0017,"nx":28,"ny":28,"refTime":"2022-11-17T15:00:00:Z","depth":0,"parameterNumber":2,"parameterNumberName":"U-component_of_WINDS"},"data":[0,0,0,0,0,0,0,0,0,0,0,0,0,0,0,0,0,0,0,0,0,0,0,0,0,0,0,0,0,0,0,0,0,0,0,0,0,0,0,0,0,0,0,0,0,0,0,0,0,0,0,0,0,0,0,0,0,0,-1.8786,-1.8787,0,-1.8893,-1.8894,-1.8895,-1.8827,-1.8824,-1.8821,-1.8818,-1.893,-1.8936,-1.8942,0,0,0,0,0,0,0,0,0,0,0,0,0,-1.8523,-1.8529,-1.8786,-1.8787,-1.8788,-1.8893,-1.8894,-1.8896,-1.8828,-1.8824,-1.882,-1.8816,-1.8928,-1.8935,-1.8942,0,0,0,0,0,0,0,0,0,0,0,0,0,-1.8635,-1.853,-1.8785,-1.8767,-1.8766,-1.8892,-1.8894,-1.8896,-1.8829,-1.8824,-1.8819,-1.8815,-1.8926,-1.8935,-1.8943,-1.9095,0,0,-1.8971,-1.8975,0,0,0,0,0,0,0,0,-1.8629,-1.8644,-1.8768,-1.8768,-1.8768,-1.8842,-1.8843,-1.8963,-1.883,-1.8805,-1.8818,-1.8812,-1.8905,-1.8915,-1.8946,-1.91,-1.9105,-1.8972,-1.8977,-1.8981,-1.8983,0,0,0,0,0,0,0,-1.8621,-1.8639,-1.8828,-1.877,-1.877,-1.8754,-1.8764,-1.8865,-1.8881,-1.8807,-1.8802,-1.8816,-1.8904,-1.8937,-1.8948,-1.9106,-1.8971,-1.8979,-1.8985,-1.8988,-1.9389,-1.9394,0,0,0,0,0,0,-1.8614,-1.8633,-1.8825,-1.8831,-1.8685,-1.8762,-1.8774,-1.8823,-1.8879,-1.8883,-1.882,-1.8812,-1.8925,-1.8938,-1.8952,-1.9132,-1.8981,-1.8989,-1.8994,-1.9383,-1.939,-1.9395,0,0,0,0,0,0,-1.8609,-1.8632,-1.882,-1.8731,-1.8754,-1.8772,-1.8827,-1.8828,-1.8861,-1.8889,-1.8891,-1.8851,-1.8921,-1.8939,-1.9059,-1.9135,-1.8993,-1.9001,-1.9377,-1.9385,-1.9393,-1.9495,0,0,0,0,0,0,-1.8602,-1.8631,-1.8688,-1.8733,-1.8759,-1.8926,-1.8832,-1.8833,-1.8876,-1.8868,-1.8919,-1.8923,-1.8919,-1.9046,-1.9068,-1.9145,-1.9008,-1.937,-1.9381,-1.939,-1.9485,-1.9506,-1.9523,0,0,0,0,0,-1.8593,-1.8713,-1.8691,-1.8715,-1.8831,-1.8931,-1.8946,-1.8938,-1.8883,-1.8941,-1.8958,-1.8921,-1.9123,-1.9059,-1.9083,-1.9164,-1.9366,-1.9378,-1.9389,-1.9477,-1.9502,-1.9523,0,0,0,0,0,0,-1.8678,-1.8719,-1.8695,-1.8834,-1.8879,-1.8919,-1.8992,-1.8964,-1.9027,-1.9016,-1.9004,-1.9016,-1.9142,-1.9164,-1.9093,-1.9313,-1.9236,-1.9253,-1.9294,-1.9318,-1.9336,-1.9329,-1.9016,0,0,0,0,0,-1.8713,-1.879,-1.8821,-1.8941,-1.8965,-1.8975,-1.9018,-1.9007,-1.9054,-1.9074,-1.91,-1.9147,-1.9221,-1.927,-1.934,-1.9487,-1.9497,-1.9554,-1.9573,-1.9589,-1.9605,-1.9684,-1.971,-1.9434,-1.9434,-1.9434,0,0,-1.8787,-1.8818,-1.8868,-1.8959,-1.8993,-1.9073,-1.8991,-1.908,-1.914,-1.9087,-1.9202,-1.9223,-1.9275,-1.9409,-1.947,-1.9432,-1.9682,-1.9604,-1.9616,-1.9624,-1.9699,-1.9725,-1.9748,-1.9442,-1.9441,-1.944,0,0,-1.8961,-1.8993,-1.9096,-1.9131,-1.9183,-1.9188,-1.9213,-1.9257,-1.9268,-1.9383,-1.9345,-1.9415,-1.9543,-1.9582,-1.9618,-1.9805,-1.9774,-1.9828,-1.9928,-2.0006,-2.0028,-2.0047,-2.0114,-2.0139,-1.9843,-1.9843,-1.9844,0,-1.9047,-1.9166,-1.9152,-1.9244,-1.9285,-1.9239,-1.9343,-1.9378,-1.9451,-1.9481,-1.9437,-1.9595,-1.9627,-1.977,-1.9815,-1.9846,-1.9874,-1.9823,-2.0025,-2.0044,-2.0062,-2.0127,-2.0152,-1.985,-1.9849,-1.9848,-1.9848,0,-1.9268,-1.9351,-1.9428,-1.9498,-1.9547,-1.9645,-1.9647,-1.9698,-1.9683,-1.9693,-1.981,-1.9846,-1.9922,-1.9955,-1.9941,-2.0096,-2.007,-2.0026,-1.9949,-2.0095,-2.0155,-2.018,-1.9859,-1.9857,-1.9855,-1.9853,0,0,-1.9503,-1.9562,-1.9591,-1.9622,-1.9675,-1.9739,-1.9834,-1.9907,-1.9952,-2.0002,-2.0082,-2.019,-2.0149,-2.019,-2.018,-2.0248,-2.0395,-2.0195,-2.0196,-2.0232,-2.0567,-2.0602,-2.063,-2.0373,-2.0377,-2.0381,-2.0563,0,-1.9682,-1.9847,-1.9837,-1.9993,-2.0069,-2.0026,-2.0108,-2.015,-2.0161,-2.0228,-2.024,-2.0318,-2.0257,-2.0282,-2.0346,-2.0363,-2.0462,-2.035,-2.0448,-2.0452,-2.0438,-2.0662,-2.0698,-2.0869,-2.0587,-2.0591,-2.0594,0,-1.9913,-1.9971,-2.0134,-2.0175,-2.0206,-2.0281,-2.0347,-2.0411,-2.0457,-2.046,-2.0505,-2.0483,-2.0579,-2.0498,-2.063,-2.0554,-2.0593,-2.0607,-2.0613,-2.0624,-2.0533,-2.068,-2.0923,-2.0949,-2.063,-2.0627,-2.0625,0,-2.007,-2.0188,-2.0301,-2.0328,-2.0378,-2.0431,-2.0455,-2.0495,-2.054,-2.0597,-2.0625,-2.0693,-2.0731,-2.0784,-2.0781,-2.0722,-2.0916,-2.0834,-2.0922,-2.0922,-2.0967,-2.0964,-2.1221,-2.0989,-2.0989,-2.0988,-2.0988,0,-2.0272,-2.0374,-2.0371,-2.0441,-2.0554,-2.054,-2.0652,-2.067,-2.0706,-2.0778,-2.0744,-2.0813,-2.0804,-2.0873,-2.0871,-2.0981,-2.0998,-2.1004,-2.1003,-2.1008,-2.1008,-2.1035,-2.1024,-2.0995,-2.0994,-2.0992,-2.0991,0,-2.0467,-2.0469,-2.0589,-2.0625,-2.0637,-2.0718,-2.075,-2.0816,-2.0823,-2.0915,-2.0936,-2.0948,-2.1027,-2.1028,-2.112,-2.1118,-2.1253,-2.1237,-2.1238,-2.1235,-2.1323,-2.1316,-2.1609,-2.1646,-2.1389,-2.1391,-2.1393,0,-2.0596,-2.0673,-2.0717,-2.0763,-2.0789,-2.0863,-2.0908,-2.0897,-2.0945,-2.1002,-2.1061,-2.1136,-2.1197,-2.1325,-2.1343,-2.1412,-2.1399,-2.1496,-2.1409,-2.1412,-2.1401,-2.1398,-2.1405,-2.1514,-2.1517,-2.1519,-2.1521,0,-2.0827,-2.0823,-2.0889,-2.0954,-2.1008,-2.1059,-2.1107,-2.1146,-2.114,-2.1196,-2.1276,-2.1322,-2.1414,-2.149,-2.1557,-2.1581,-2.1551,-2.1548,-2.1572,-2.158,-2.1577,-2.1581,-2.1286,-2.1542,-2.154,-2.1539,-2.1537,-2.1537,-2.0994,-2.106,-2.1101,-2.1175,-2.1209,-2.1253,-2.1317,-2.1331,-2.1398,-2.1471,-2.1461,-2.155,-2.1592,-2.1679,-2.1708,-2.1778,-2.1744,-2.1779,-2.1788,-2.1797,-2.1807,-2.1564,-2.179,-2.1789,-2.1789,-2.1788,-2.1788,0,-2.1223,-2.1247,-2.1314,-2.1381,-2.1439,-2.1403,-2.1453,-2.1504,-2.1583,-2.1625,-2.1684,-2.1776,-2.1849,-2.1871,-2.1941,-2.1993,-2.1981,-2.2012,-2.2009,-2.2015,-2.1833,-2.1806,-2.202,-2.202,-2.202,-2.202,-2.202,-2.202,-2.135,-2.146,-2.1462,-2.1588,-2.1611,-2.1698,-2.173,-2.177,-2.1803,-2.1907,-2.1967,-2.198,-2.2014,-2.2086,-2.2151,-2.2156,-2.2184,-2.2221,-2.222,-2.2051,-2.2027,-2.2005,-2.1979,-2.2227,-2.2227,-2.2395,-2.2397,-2.2398]},{"header":{"parameterUnit":"m.s-1","parameterCategory":1,"la1":30.2991,"la2":30.254,"lo1":-89.0895,"lo2":-89.0444,"dx":0.0017,"dy":0.0017,"nx":28,"ny":28,"refTime":"2022-11-17T15:00:00:Z","depth":0,"parameterNumber":3,"parameterNumberName":"V-component_of_WINDS"},"data":[0,0,0,0,0,0,0,0,0,0,0,0,0,0,0,0,0,0,0,0,0,0,0,0,0,0,0,0,0,0,0,0,0,0,0,0,0,0,0,0,0,0,0,0,0,0,0,0,0,0,0,0,0,0,0,0,0,0,-5.8782,-5.8784,0,-5.8915,-5.8916,-5.8918,-5.8835,-5.8831,-5.8827,-5.8823,-5.8954,-5.8961,-5.8968,0,0,0,0,0,0,0,0,0,0,0,0,0,-5.845,-5.8457,-5.8782,-5.8784,-5.8785,-5.8915,-5.8917,-5.8918,-5.8836,-5.8831,-5.8826,-5.8822,-5.8952,-5.896,-5.8969,0,0,0,0,0,0,0,0,0,0,0,0,0,-5.859,-5.8459,-5.8782,-5.876,-5.8759,-5.8914,-5.8917,-5.8919,-5.8837,-5.8831,-5.8825,-5.8819,-5.8949,-5.896,-5.897,-5.9153,0,0,-5.9003,-5.9007,0,0,0,0,0,0,0,0,-5.8582,-5.8602,-5.8761,-5.8762,-5.8761,-5.8852,-5.8847,-5.8997,-5.8838,-5.8807,-5.8823,-5.8817,-5.8925,-5.8937,-5.8975,-5.9159,-5.9165,-5.9004,-5.901,-5.9015,-5.9018,0,0,0,0,0,0,0,-5.8572,-5.8596,-5.8834,-5.8764,-5.8764,-5.8741,-5.8754,-5.8875,-5.8897,-5.8809,-5.8804,-5.8821,-5.8924,-5.8965,-5.8977,-5.9167,-5.9003,-5.9013,-5.902,-5.9024,-5.9504,-5.951,0,0,0,0,0,0,-5.8565,-5.8588,-5.883,-5.8838,-5.8655,-5.8752,-5.8767,-5.8829,-5.8895,-5.89,-5.8826,-5.8816,-5.8949,-5.8965,-5.8982,-5.9198,-5.9015,-5.9025,-5.9031,-5.9498,-5.9506,-5.9513,0,0,0,0,0,0,-5.8558,-5.8588,-5.8825,-5.8712,-5.874,-5.8764,-5.8834,-5.8835,-5.8876,-5.8908,-5.8911,-5.8864,-5.8945,-5.8966,-5.9111,-5.9201,-5.903,-5.9039,-5.949,-5.95,-5.9509,-5.9634,0,0,0,0,0,0,-5.8549,-5.8586,-5.8657,-5.8714,-5.8747,-5.8954,-5.884,-5.8841,-5.8895,-5.8884,-5.8945,-5.8949,-5.8942,-5.9095,-5.9121,-5.9213,-5.9048,-5.9482,-5.9495,-5.9506,-5.9622,-5.9647,-5.9668,0,0,0,0,0,-5.8538,-5.8686,-5.8661,-5.8691,-5.8837,-5.896,-5.8978,-5.8969,-5.8903,-5.8973,-5.8993,-5.8947,-5.9188,-5.9111,-5.9139,-5.9236,-5.9477,-5.9491,-5.9505,-5.9612,-5.9642,-5.9667,0,0,0,0,0,0,-5.8638,-5.8694,-5.8666,-5.8838,-5.8895,-5.8946,-5.9035,-5.9002,-5.9077,-5.9064,-5.9047,-5.9062,-5.9212,-5.9238,-5.9152,-5.9414,-5.9321,-5.9342,-5.9392,-5.9421,-5.9444,-5.9434,-5.9056,0,0,0,0,0,-5.8681,-5.8778,-5.882,-5.8968,-5.8998,-5.9012,-5.9065,-5.9053,-5.911,-5.9133,-5.9164,-5.922,-5.9307,-5.9366,-5.9449,-5.9625,-5.9636,-5.9705,-5.9728,-5.9747,-5.9765,-5.9858,-5.9888,-5.956,-5.9559,-5.9559,0,0,-5.8769,-5.8811,-5.8873,-5.8989,-5.9031,-5.913,-5.9032,-5.9141,-5.9213,-5.9149,-5.9287,-5.9312,-5.9373,-5.9533,-5.9606,-5.956,-5.9858,-5.9765,-5.978,-5.9788,-5.9875,-5.9907,-5.9934,-5.9569,-5.9567,-5.9566,0,0,-5.898,-5.9023,-5.9149,-5.9194,-5.926,-5.9268,-5.9298,-5.9354,-5.9368,-5.9507,-5.946,-5.9544,-5.9697,-5.9741,-5.9784,-6.001,-5.9969,-6.0037,-6.0157,-6.0248,-6.0274,-6.0296,-6.0375,-6.0404,-6.0055,-6.0055,-6.0056,0,-5.9081,-5.923,-5.9218,-5.9331,-5.9382,-5.9329,-5.9456,-5.9499,-5.9588,-5.9624,-5.9571,-5.976,-5.9798,-5.9967,-6.0022,-6.0059,-6.0091,-6.003,-6.0271,-6.0294,-6.0315,-6.039,-6.042,-6.0063,-6.0062,-6.0061,-6.0061,0,-5.9349,-5.9453,-5.9547,-5.9636,-5.9697,-5.9816,-5.9821,-5.9884,-5.9866,-5.9879,-6.0019,-6.0062,-6.0151,-6.0191,-6.0174,-6.0357,-6.0326,-6.0273,-6.0179,-6.0354,-6.0424,-6.0453,-6.0074,-6.0071,-6.0069,-6.0067,0,0,-5.9629,-5.9708,-5.9743,-5.9782,-5.985,-5.9928,-6.0044,-6.0133,-6.0186,-6.0249,-6.0343,-6.0473,-6.0423,-6.0472,-6.0459,-6.0539,-6.0713,-6.0475,-6.0477,-6.0517,-6.0915,-6.0954,-6.0987,-6.0686,-6.0692,-6.0696,-6.0909,0,-5.9842,-6.0046,-6.0038,-6.0227,-6.0321,-6.0271,-6.0371,-6.0422,-6.0437,-6.0517,-6.0532,-6.0623,-6.0552,-6.0581,-6.0657,-6.0676,-6.0792,-6.066,-6.0772,-6.0776,-6.0758,-6.1024,-6.1066,-6.1265,-6.0936,-6.0941,-6.0944,0,-6.012,-6.0193,-6.0392,-6.0444,-6.0483,-6.0573,-6.0653,-6.0731,-6.0787,-6.0791,-6.0845,-6.0819,-6.0933,-6.0836,-6.0991,-6.0902,-6.0946,-6.0962,-6.0969,-6.0979,-6.0871,-6.1039,-6.1329,-6.1358,-6.0988,-6.0984,-6.0981,0,-6.0302,-6.0449,-6.0587,-6.0621,-6.0686,-6.0751,-6.078,-6.083,-6.0884,-6.0952,-6.0986,-6.1067,-6.1111,-6.1173,-6.1168,-6.1099,-6.1325,-6.1228,-6.133,-6.133,-6.138,-6.1377,-6.1679,-6.1411,-6.141,-6.141,-6.1409,0,-6.0541,-6.0664,-6.0669,-6.0754,-6.0889,-6.0877,-6.1011,-6.1033,-6.1078,-6.1164,-6.1126,-6.1207,-6.1196,-6.1277,-6.1274,-6.1402,-6.1422,-6.1427,-6.1425,-6.1431,-6.143,-6.1459,-6.1445,-6.1418,-6.1416,-6.1414,-6.1413,0,-6.0767,-6.0776,-6.0922,-6.0971,-6.0986,-6.1084,-6.1124,-6.1203,-6.1214,-6.1323,-6.1348,-6.1364,-6.1457,-6.1458,-6.1565,-6.1562,-6.1718,-6.17,-6.17,-6.1696,-6.1797,-6.1787,-6.2128,-6.2171,-6.1876,-6.1879,-6.1881,0,-6.0919,-6.1012,-6.1072,-6.1127,-6.1161,-6.1251,-6.1305,-6.1297,-6.1354,-6.1424,-6.1493,-6.1583,-6.1654,-6.1804,-6.1824,-6.1904,-6.1887,-6.2001,-6.1899,-6.1901,-6.1887,-6.1881,-6.1889,-6.2021,-6.2024,-6.2027,-6.2029,0,-6.1187,-6.1186,-6.1267,-6.1349,-6.1415,-6.1478,-6.1537,-6.1584,-6.1582,-6.1648,-6.1743,-6.1798,-6.1906,-6.1995,-6.2072,-6.21,-6.2064,-6.2061,-6.2089,-6.2095,-6.209,-6.2093,-6.1753,-6.2053,-6.2051,-6.2049,-6.2048,-6.2047,-6.1379,-6.146,-6.1514,-6.1604,-6.1647,-6.1703,-6.1779,-6.1799,-6.1878,-6.1967,-6.1956,-6.2062,-6.2112,-6.2213,-6.2247,-6.2327,-6.2287,-6.2328,-6.2338,-6.2347,-6.2358,-6.2078,-6.2341,-6.2341,-6.234,-6.2339,-6.2339,0,-6.1644,-6.1676,-6.1759,-6.1843,-6.1914,-6.1875,-6.1937,-6.1998,-6.2092,-6.2143,-6.2214,-6.2322,-6.2407,-6.2433,-6.2515,-6.2574,-6.2559,-6.2595,-6.259,-6.2597,-6.239,-6.2357,-6.2606,-6.2606,-6.2606,-6.2606,-6.2606,-6.2606,-6.179,-6.1923,-6.1928,-6.2081,-6.2111,-6.2216,-6.2254,-6.2304,-6.2345,-6.2468,-6.2539,-6.2556,-6.2596,-6.268,-6.2755,-6.276,-6.2791,-6.2835,-6.2833,-6.2639,-6.2612,-6.2586,-6.2555,-6.2842,-6.2842,-6.3033,-6.3035,-6.3036]}]]